Regional Weather Roundup
Issued by NWS Wakefield, VA

Home | Current Version | Previous Version | Graphics & Text | Print | Product List | Glossary On
Versions: 1 2 3 4 5 6 7 8 9 10 11 12 13 14 15 16 17 18 19 20 21 22 23 24 25 26 27 28 29 30 31 32 33 34 35 36 37 38 39 40 41 42 43 44 45 46 47 48 49 50
000
ASUS41 KAKQ 011914
RWRAKQ

REGIONAL WEATHER ROUNDUP
NATIONAL WEATHER SERVICE WAKEFIELD VA
300 PM EDT WED JUL 01 2015

Note: "fair" indicates few or no clouds below 12,000 feet with no
significant weather and/or obstructions to visibility. * = Denotes
station may not report precipitation (e.g., rain,snow,etc.),
thunder or fog.

VAZ042-051-052>054-056-012000-
NORTHERN VIRGINIA

CITY           SKY/WX    TMP DP  RH WIND       PRES   REMARKS
WASH NATIONAL  PTSUNNY   87  64  46 SW9G18    29.86S
DULLES         PTSUNNY   84  65  52 SW7       29.86F
FORT BELVOIR   SUNNY     86  65  50 W7        29.85F
QUANTICO       MOSUNNY   85  62  46 SW8       29.87F
FREDERICKSBRG* MOSUNNY   86  66  51 SW9       29.86F
STAFFORD*      SUNNY     83  65  54 SW8       29.91F
WARRENTON      MOSUNNY   85  68  56 SW6       29.86F
CULPEPER*      SUNNY     83  65  53 SW9       29.87F
MANASSAS*      SUNNY     84  64  51 W9        29.86F
LEESBURG*      CLOUDY    82  66  57 W3        29.87S
WINCHESTER     PTSUNNY   82  63  51 NW10      29.87F
FRONT ROYAL*   MOCLDY    82  68  61 S7        29.87S
LURAY*         MOCLDY    86  66  51 S12       29.88S
$$

VAZ048-049-060>072-079>083-012000-
CENTRAL AND SOUTH CENTRAL VIRGINIA

CITY           SKY/WX    TMP DP  RH WIND       PRES   REMARKS
RICHMOND       CLOUDY    86  65  49 W8G17     29.89F
CHESTERFIELD*  FAIR      84  61  45 W8        29.90F
PETERSBURG*    SUNNY     87  72  61 SW7       29.90F
HANOVER        SUNNY     85  66  53 W9        29.90F
TAPPAHANNOCK*  SUNNY     86  59  40 W8        29.89S
QUINTON*       FAIR      84  67  56 CALM      29.89S
CHARLOTTSVILLE MOSUNNY   83  65  54 SW10G16   29.89F
GORDONSVILLE*  FAIR      82  68  61 SW13      29.88F
ORANGE*        MOSUNNY   86  68  54 S12       29.90S
LOUISA*        SUNNY     84  66  54 SW8       29.88F
BUMPASS*       FAIR      83  68  59 SW8       29.88F
FARMVILLE*     MOSUNNY   85  65  49 SW6       29.90F
CREWE*         FAIR      85  64  49 SW3       29.91F
FORT PICKETT*  FAIR      84  66  54 W9        29.92S
CHASE CITY*    FAIR      85  69  58 W3        29.94R
CLARKSVILLE*   FAIR      84  66  54 S8        29.93S
SOUTH HILL*    SUNNY     83  67  58 SW8       29.98F
LAWRENCEVILLE* NOT AVBL
EMPORIA*         N/A     82  66  57 CALM      29.92F
$$

VAZ088>098-012000-
SOUTHEAST VIRGINIA

CITY           SKY/WX    TMP DP  RH WIND       PRES   REMARKS
NORFOLK        SUNNY     87  63  44 NW8       29.89F
VIRGINIA BEACH PTSUNNY   90  64  42 W10       29.89S
NORFOLK NAVAL  SUNNY     85  66  53 SW10      29.91S
WEST POINT*    SUNNY     87  62  42 SW9       29.89F
SALUDA*        FAIR      85  69  58 SW8       29.88S
NEWPORT NEWS   SUNNY     85  67  54 W14       29.89F
LANGLEY AFB    MOSUNNY   85  68  57 SW13      29.88F
FORT EUSTIS    SUNNY     85  70  60 W6        29.87F
WILLIAMSBURG*  SUNNY     90  70  51 SW9       29.90F HX  95
HR EXEC AP*    FAIR      86  68  54 W6        29.92S
FRANKLIN*      SUNNY     84  67  56 SW7       29.92S
WAKEFIELD      SUNNY     86  66  51 W9        29.90F
$$

VAZ020-022-025-037-045-012000-
WEST CENTRAL AND SOUTHWEST VIRGINIA

CITY           SKY/WX    TMP DP  RH WIND       PRES   REMARKS
STAUNTON*      CLOUDY    82  64  55 SW13      29.93S
WAYNESBORO*    FAIR      79  64  59 SW10G18   29.94S
HOT SPRINGS VA MOSUNNY   73  59  60 W14       30.04F
LYNCHBURG      MOSUNNY   82  63  52 SW9       29.94F
DANVILLE       SUNNY     85  66  53 SW8       29.94F
SOUTH BOSTON*  FAIR      83  67  57 MISG      29.93F
MARTINSVILLE   MOSUNNY   86  62  43 W5        29.97F
ROANOKE        PTSUNNY   83  61  47 W8        29.95F
BLACKSBURG     PTSUNNY   79  63  57 W5        30.01F
DUBLIN*        MOSUNNY   81  62  51 W8        30.00F
MARION*        PTSUNNY   78  64  61 W13       30.05S
HILLSVILLE*    MOSUNNY   78  60  54 SW10      30.03S
RICHLANDS*     MOCLDY    74  66  77 W7        30.04S
WISE*          PTSUNNY   73  63  68 SW9       30.05F
ABINGDON*      PTSUNNY   76  66  71 W7        30.02F
$$

MDZ021>025-VAZ099-100-012000-
SOUTHERN MARYLAND AND THE DELMARVA PENINSULA

CITY           SKY/WX    TMP DP  RH WIND       PRES   REMARKS
PATUXENT RIVER MOSUNNY   84  66  54 SW8       29.86F
BAY BRIDGE APT   N/A     82  63  51 SW9       29.85S
LEONARDTOWN    SUNNY     82  64  54 SW9       29.88S
DOVER          SUNNY     84  67  57 W16       29.82
GEORGETOWN     MOSUNNY   85  63  47 W9        29.85F
EASTON         SUNNY     84  66  54 SW12      29.89F
CAMBRIDGE      SUNNY     82  63  51 SW9       29.85F
SALISBURY      SUNNY     85  61  44 W14       29.86F
OCEAN CITY     SUNNY     86  66  51 W9        29.85F
WALLOPS ISLAND MOSUNNY   84  65  52 SW10      29.87F
ACCOMACK*      SUNNY     82  70  65 W8        29.88S
$$

NCZ012>017-030>032-012000-
NORTH CENTRAL AND EASTERN NORTH CAROLINA

CITY           SKY/WX    TMP DP  RH WIND       PRES   REMARKS
ROANOKE RAPIDS FAIR      84  68  58 SW7       29.92F
RALEIGH        PTSUNNY   86  69  56 SW8       29.95F
ELIZABETH CITY SUNNY     85  67  54 W7        29.92S
AHOSKIE*       SUNNY     83  68  59 CALM      29.93S
EDENTON*         N/A     85  70  60 SW6       29.93S
CURRITUCK*     SUNNY     87  60  40 SW8       29.92S
KILL DEVIL HLS SUNNY     88  68  51 W7        29.92S
MANTEO         SUNNY     86  65  48 W9        29.93S
CAPE HATTERAS  SUNNY     82  74  76 SW14G23   29.96S
TARBORO*         N/A     89  65  46 W7        29.94S
GOLDSBORO      MOSUNNY   85  70  61 S8        29.93F
WASHINGTON     SUNNY     86  69  55 W7        29.95R
GREENVILLE     SUNNY     88  66  48 W9        29.96S
NEW BERN       MOSUNNY   87  72  60 SW9       29.96S
WILMINGTON     MOSUNNY   87  71  58 W8G17     29.97S
$$

VAZ048-012000-
ELSEWHERE

CITY           SKY/WX    TMP DP  RH WIND       PRES   REMARKS
HARRISBURG PA  PTSUNNY   81  61  50 NW13G22   29.83R
BALTIMORE      MOSUNNY   84  63  49 W12       29.84S
ANNAPOLIS      PTSUNNY   82  63  52 SW6       29.84F
ANDREWS AFB    MOSUNNY   83  70  64 SW8       29.86S
PHILADELPHIA   MOSUNNY   85  64  49 W15       29.80F
HENDERSON NC   MOSUNNY   84  65  52 SW8       29.94S
GREENSBORO     PTSUNNY   85  61  44 SW7G17    29.95F
ROCKY MOUNT    MOSUNNY   88  66  48 VRB5      29.92F
$$

VAZ100-012000-
MARINE

STATION/POSITION TIME  TEMP    WIND        PRES    WAVE   SWELL
                       AIR SEA DIR/SP/G            HT/PER HT/PER
                 (UTC) (F)     (DEG/KT/KT) (MB)    (FT/S) (FT/S)
BRANDYWINE LGT   1800   79 75  240/  8/ 10 1011.0F
CAPE MAY NJ      1800   80 78  220/  6/  8 1010.6F
LEWES DE         1800   83 71  240/ 10/ 14 1010.7F
15NM E FENWICK I 1850   74 74              1010.7F   4/ 8
OCEAN-CITY-INLET 1800   76 75  200/  9/ 13 1011.0F
WACHAPREAGUE VA  1800   84 83  280/  3/ 11 1012.0F
GOOSES REEF MD   1900   82 79  240/  8/ 10 1012.1F
COVE POINT MD    1800   81     260/  5/  9 1012.2F
SOLOMONS ISLAND  1800      81                N/A
BISHOPS HEAD MD  1800   79     230/  7/  9 1011.5F
PINEY POINT MD   1800          140/  2/  2   N/A
CAMBRIDGE MD     1800   83 79  230/  8/ 12 1011.2F
LEWISETTA VA     1800   82 79  230/ 11/ 13 1011.4F
RAPPAHANNOCK LGT 1800          200/ 11/ 12 1012.5F
STINGRAY PT      1900   83 82  240/ 10/ 12 1011.9F   1
YORK RVR RNG VA  1800   81     270/ 10/ 11 1011.7F
YORKTOWN VA      1800   82 80  240/  8/ 11 1011.9F
JAMESTOWN VA     1900   83 84  240/  8/ 10   N/A
DOMINION TERM VA 1800   82     250/  8/ 11 1012.4F
KIPTOPEKE VA     1800      83  250/  9/ 11   N/A
CHES BAY BRIDGE  1800   81 78  250/  9/ 10 1012.0F
CAPE HENRY VA    1800   85     230/  5/  9 1010.8F
CHESAPEAKE LGHT  1800   79        CALM     1013.3F
WILLOUBY STN VA  1800   80     240/ 11/ 12 1013.2F
CAPE HENRY BUOY  1828      80                N/A     3/ 8
1ST LANDING BUOY 1900      79              1012.1F   1/ 4
CAPE CHARLES BUO 1826      77                N/A     3/ 8
OFFSHORE WE BUOY 1811      78                N/A     4/ 8   3/ 8
64NM E OF VA BCH 1850   78 77  230/ 14/ 16 1012.5F   5/ 8   3/ 8
DUCK PIER NC     1800   81 60  240/ 12/ 13 1012.6F
44100 DUCK FRF   1824      77                N/A     3/ 8
44056 DUCK FRF   1811      71                N/A     2/ 8
OREGON INLET NC  1800   81 83  200/ 15/ 17 1013.5F
HATTERAS NC      1800   81 81  210/ 11/ 18 1014.2F
DIAMOND SHLS NC  1850   80 83  240/ 19/ 21 1014.3F   5/ 8   3/ 8
CAPE LOOKOUT NC  1900   82     230/ 15/ 17 1014.3F
$$



USA.gov is the U.S. government's official web portal to all federal, state and local government web resources and services.